sat.trackr.live / text

‹ back to catalog

STARLINK-34745

NORAD 65057 · 2025-165B

PAYLOAD ACTIVE UNKNOWN

§ Identity

Operator
Country
US
Launch date
2025-07-31
Launch site
AFWTR
Launch vehicle
Mass (kg)
RCS (m²)

Purposes: comms

External: N2YO · Heavens-Above · Gunter

§ Orbital elements

Epoch: 2026-05-25T03:48:30.910176Z

Period
95.64 min
Inclination
97.4543°
Eccentricity
0.0002685
Mean motion
15.05618749 rev/d
Perigee alt
547.7 km
Apogee alt
551.5 km
Semi-major
6,927.7 km
B*
-1.2041e-3
RAAN
222.1881°
Arg perigee
189.6011°
Mean anomaly
170.5165°
Rev number
4,629

§ Raw data

STARLINK-347451 65057U 25165B   26145.15869109 -.00017377  00000+0 -12041-2 0  99952 65057  97.4543 222.1881 0002685 189.6011 170.5165 15.05618749 46290

JSON: /api/v1/satellites/65057 · /tle

For live sub-satellite position, see the globe view (requires WebGL).

§ Visibility from observer

Set your observer location to see the next 7 days of passes ≥ 10°. The values pass through the URL so the page stays shareable.

No JS? Fill the form by hand. The geolocation button needs JavaScript.